EW2066 Weather Reports


time (UTC)temp
F
wind
direction
speed
knots
gust
knots
rain 1hr
in
rain 24hr
in
rain mn
in
humidity
%
barometer
mb
20260505064353 60 193 6.1 13.0 0.00 0.00 0.00 100 1009.6
20260505063847 61 190 6.1 15.6 0.00 0.00 0.00 100 1009.6
20260505063341 60 184 7.8 15.6 0.00 0.00 0.00 100 1009.7
20260505062835 59 186 4.3 0.0 0.00 0.00 0.00 100 1009.7
20260505062329 56 164 3.5 9.6 0.00 0.00 0.00 100 1009.8
20260505061823 58 162 5.2 12.2 0.00 0.00 0.00 100 1009.9
20260505061317 57 172 5.2 12.2 0.00 0.00 0.00 100 1009.8
20260505060811 58 161 6.1 10.4 0.00 0.00 0.00 100 1009.7
20260505060305 58 145 3.5 0.0 0.00 0.00 0.00 100 1009.7
20260505055759 57 167 6.1 0.0 0.00 0.00 0.00 100 1009.6
20260505055253 59 150 4.3 0.0 0.00 0.00 0.00 100 1009.5
20260505054747 58 159 2.6 0.0 0.00 0.00 0.00 100 1009.4
20260505054241 57 142 2.6 0.0 0.00 0.00 0.00 100 1009.4
20260505053735 57 179 2.6 0.0 0.00 0.00 0.00 100 1009.4
20260505053229 56 175 3.5 0.0 0.00 0.00 0.00 100 1009.4
20260505052723 56 201 3.5 0.0 0.00 0.00 0.00 100 1009.4
20260505052217 56 205 0.9 8.7 0.00 0.00 0.00 100 1009.2
20260505051711 56 215 2.6 8.7 0.00 0.00 0.00 100 1009.2
20260505051205 57 154 3.5 0.0 0.00 0.00 0.00 100 1009.0
20260505050659 57 158 3.5 0.0 0.00 0.00 0.00 100 1009.0
20260505050153 57 162 5.2 0.0 0.00 0.00 0.00 100 1009.0
20260505041559 56 159 3.5 0.0 0.00 0.00 0.00 100 1009.0
20260505041053 57 155 3.5 0.0 0.00 0.00 0.00 100 1008.9
20260505040547 57 154 2.6 0.0 0.00 0.00 0.00 100 1008.8
20260505040041 57 141 5.2 0.0 0.00 0.00 0.00 100 1008.8
20260505035535 57 140 5.2 0.0 0.00 0.00 0.00 100 1008.8
20260505035029 57 138 4.3 0.0 0.00 0.00 0.00 100 1008.7
20260505034523 58 137 4.3 0.0 0.00 0.00 0.00 100 1008.7
20260505034017 57 136 3.5 0.0 0.00 0.00 0.00 100 1008.6
20260505033511 59 136 4.3 0.0 0.00 0.00 0.00 100 1008.6
20260505033005 59 142 4.3 0.0 0.00 0.00 0.00 100 1008.5
20260505032459 59 137 5.2 0.0 0.00 0.00 0.00 100 1008.4
20260505031953 59 141 4.3 0.0 0.00 0.00 0.00 100 1008.3
20260505031447 59 155 3.5 0.0 0.00 0.00 0.00 100 1008.2
20260505030941 59 159 2.6 0.0 0.00 0.00 0.00 100 1008.2
20260505030435 59 156 2.6 0.0 0.00 0.00 0.00 100 1008.2
20260505025929 59 140 3.5 9.6 0.00 0.00 0.00 100 1008.1
20260505025423 59 145 3.5 0.0 0.00 0.00 0.00 100 1008.1
20260505024917 59 138 3.5 0.0 0.00 0.00 0.00 100 1008.0
20260505024411 58 161 3.5 0.0 0.00 0.00 0.00 100 1007.9
20260505023905 56 192 3.5 0.0 0.00 0.00 0.00 100 1007.8
20260505023359 59 129 2.6 0.0 0.00 0.00 0.00 100 1007.8
20260505022853 60 145 2.6 0.0 0.00 0.00 0.00 100 1007.8
20260505022347 60 134 1.7 0.0 0.00 0.00 0.00 100 1007.8
20260505021841 59 164 2.6 0.0 0.00 0.00 0.00 100 1007.7
20260505021335 60 138 2.6 0.0 0.00 0.00 0.00 100 1007.6
20260505020829 59 165 2.6 0.0 0.00 0.00 0.00 100 1007.6
20260505020323 57 188 3.5 0.0 0.00 0.00 0.00 100 1007.6
20260505015817 62 138 0.9 0.0 0.00 0.00 0.00 100 1007.4
20260505015311 61 149 0.9 0.0 0.00 0.00 0.00 100 1007.4
20260505014805 61 142 0.0 0.0 0.00 0.00 0.00 100 1007.3
20260505014259 61 156 0.0 0.0 0.00 0.00 0.00 100 1007.4
20260505013753 62 192 0.9 0.0 0.00 0.00 0.00 100 1007.4
20260505013247 63 123 0.0 0.0 0.00 0.00 0.00 100 1007.4
20260505012741 64 114 0.9 0.0 0.00 0.00 0.00 100 1007.3
20260505012235 64 126 0.9 0.0 0.00 0.00 0.00 100 1007.3
20260505011729 64 132 0.9 0.0 0.00 0.00 0.00 100 1007.3
20260505011223 65 128 0.0 0.0 0.00 0.00 0.00 100 1007.4
20260505010717 66 109 0.0 0.0 0.00 0.00 0.00 100 1007.5
20260505010211 66 66 0.9 0.0 0.00 0.00 0.00 100 1007.4
20260505005705 65 90 0.0 0.0 0.00 0.00 0.00 100 1007.5
20260505005159 65 187 0.0 0.0 0.00 0.00 0.00 100 1007.6
20260505004653 66 251 0.0 0.0 0.00 0.00 0.00 100 1007.7
20260505004147 65 322 1.7 0.0 0.00 0.00 0.00 100 1007.8
20260505003641 66 334 3.5 0.0 0.00 0.00 0.00 100 1007.8
20260505003135 66 309 3.5 0.0 0.00 0.00 0.00 100 1007.9
20260505001053 66 317 3.5 0.0 0.00 0.00 0.00 100 1008.0
20260505000547 65 344 4.3 0.0 0.00 0.00 0.00 100 1007.9
20260505000041 66 337 4.3 0.0 0.00 0.00 0.00 100 1008.0
20260504235535 66 346 6.1 0.0 0.00 0.00 0.00 100 1007.8
20260504235029 67 342 7.0 0.0 0.00 0.00 0.00 100 1007.7
20260504234523 67 340 7.0 0.0 0.00 0.00 0.00 100 1007.5
20260504234017 67 340 7.0 0.0 0.00 0.00 0.00 100 1007.4
20260504233511 67 340 7.0 11.3 0.00 0.00 0.00 100 1007.3
20260504233005 68 346 7.0 0.0 0.00 0.00 0.00 100 1007.2
20260504232459 69 334 5.2 14.8 0.00 0.00 0.00 100 1007.0
20260504231441 75 292 2.6 0.0 0.00 0.00 0.00 100 1006.6
20260504230935 75 311 3.5 0.0 0.00 0.00 0.00 100 1006.5
20260504230429 76 235 1.7 0.0 0.00 0.00 0.00 100 1006.5
20260504225923 77 238 0.9 0.0 0.00 0.00 0.00 100 1006.5
20260504225417 76 249 0.0 0.0 0.00 0.00 0.00 100 1006.5
20260504224911 75 192 0.0 0.0 0.00 0.00 0.00 100 1006.6
20260504224405 75 280 1.7 0.0 0.00 0.00 0.00 100 1006.6
20260504223859 76 274 1.7 0.0 0.00 0.00 0.00 100 1006.6
20260504223353 74 190 1.7 0.0 0.00 0.00 0.00 100 1006.5
20260504222847 74 123 2.6 0.0 0.00 0.00 0.00 100 1006.5
20260504222341 75 141 0.0 0.0 0.00 0.00 0.00 100 1006.5
20260504221835 75 198 0.0 0.0 0.00 0.00 0.00 100 1006.6
20260504221329 75 263 0.0 0.0 0.00 0.00 0.00 100 1006.7
20260504220823 74 183 2.6 0.0 0.00 0.00 0.00 100 1006.7
20260504220317 75 333 0.9 0.0 0.00 0.00 0.00 100 1006.8
20260504215811 75 281 0.0 0.0 0.00 0.00 0.00 100 1006.9
20260504215305 74 314 1.7 0.0 0.00 0.00 0.00 100 1007.1
20260504214759 74 223 2.6 0.0 0.00 0.00 0.00 100 1007.1
20260504214253 74 194 1.7 0.0 0.00 0.00 0.00 100 1007.2
20260504213747 74 220 1.7 0.0 0.00 0.00 0.00 100 1007.3
20260504213241 74 182 4.3 0.0 0.00 0.00 0.00 100 1007.4
20260504212735 74 220 0.9 0.0 0.00 0.00 0.00 100 1007.4
20260504212229 74 167 0.9 0.0 0.00 0.00 0.00 100 1007.5
20260504211723 73 190 4.3 0.0 0.00 0.00 0.00 100 1007.5
20260504211217 73 9 0.9 0.0 0.00 0.00 0.00 100 1007.5
20260504210711 74 127 0.9 0.0 0.00 0.00 0.00 100 1007.6
20260504210205 73 48 2.6 0.0 0.00 0.00 0.00 100 1007.7
20260504205659 74 98 1.7 0.0 0.00 0.00 0.00 100 1007.7
20260504205153 73 305 0.0 0.0 0.00 0.00 0.00 100 1007.8
20260504204647 73 349 2.6 0.0 0.00 0.00 0.00 100 1007.8
20260504204141 73 338 2.6 0.0 0.00 0.00 0.00 100 1007.8
20260504203635 73 11 2.6 0.0 0.00 0.00 0.00 100 1007.8
20260504203129 74 348 5.2 0.0 0.00 0.00 0.00 100 1007.9
20260504202623 73 4 2.6 0.0 0.00 0.00 0.00 100 1007.8
20260504202117 74 334 1.7 0.0 0.00 0.00 0.00 100 1007.9
20260504201611 74 323 0.0 0.0 0.00 0.00 0.00 100 1007.9
20260504201105 73 286 1.7 0.0 0.00 0.00 0.00 100 1008.1
20260504200559 73 312 1.7 0.0 0.00 0.00 0.00 100 1008.1
20260504200053 73 337 5.2 0.0 0.00 0.00 0.00 100 1008.1
20260504195547 74 305 0.9 0.0 0.00 0.00 0.00 100 1008.1
20260504195041 72 338 1.7 0.0 0.00 0.00 0.00 100 1008.2
20260504194535 73 320 3.5 0.0 0.00 0.00 0.00 100 1008.3
20260504194029 72 346 1.7 0.0 0.00 0.00 0.00 100 1008.3
20260504193523 71 184 2.6 0.0 0.00 0.00 0.00 100 1008.4
20260504193017 72 34 1.7 0.0 0.00 0.00 0.00 100 1008.5
20260504192511 71 349 4.3 0.0 0.00 0.00 0.00 100 1008.5
20260504192005 72 321 1.7 0.0 0.00 0.00 0.00 100 1008.6
20260504191459 72 292 0.9 0.0 0.00 0.00 0.00 100 1008.7
20260504190953 72 327 2.6 0.0 0.00 0.00 0.00 100 1008.7
20260504190447 71 331 1.7 0.0 0.00 0.00 0.00 100 1008.8
20260504185941 71 297 2.6 0.0 0.00 0.00 0.00 100 1008.9
20260504185435 71 324 1.7 0.0 0.00 0.00 0.00 100 1009.0
20260504184929 70 328 4.3 0.0 0.00 0.00 0.00 100 1009.2
20260504184423 70 314 0.0 0.0 0.00 0.00 0.00 100 1009.2
20260504183917 70 331 3.5 0.0 0.00 0.00 0.00 100 1009.3
20260504183411 69 336 2.6 0.0 0.00 0.00 0.00 100 1009.4
20260504182905 69 355 3.5 0.0 0.00 0.00 0.00 100 1009.4
20260504182359 69 340 1.7 0.0 0.00 0.00 0.00 100 1009.5
20260504181853 68 28 0.9 0.0 0.00 0.00 0.00 100 1009.5
20260504181347 69 357 3.5 0.0 0.00 0.00 0.00 100 1009.7
20260504180841 69 323 0.9 0.0 0.00 0.00 0.00 100 1009.8
20260504180335 68 306 0.9 0.0 0.00 0.00 0.00 100 1009.9
20260504175829 67 336 1.7 0.0 0.00 0.00 0.00 100 1010.0
20260504175323 66 350 3.5 0.0 0.00 0.00 0.00 100 1010.0
20260504174817 66 346 1.7 0.0 0.00 0.00 0.00 100 1010.1
20260504174311 66 337 1.7 0.0 0.00 0.00 0.00 100 1010.2
20260504173805 66 343 1.7 0.0 0.00 0.00 0.00 100 1010.2
20260504173259 65 25 1.7 0.0 0.00 0.00 0.00 100 1010.2
20260504172753 64 341 3.5 0.0 0.00 0.00 0.00 100 1010.3
20260504172247 65 331 1.7 0.0 0.00 0.00 0.00 100 1010.3
20260504171741 66 6 0.9 0.0 0.00 0.00 0.00 100 1010.3
20260504171235 64 352 0.0 0.0 0.00 0.00 0.00 100 1010.4
20260504170729 63 342 2.6 0.0 0.00 0.00 0.00 100 1010.5
20260504170223 63 343 1.7 0.0 0.00 0.00 0.00 100 1010.5
20260504160111 58 0 2.6 0.0 0.00 0.00 0.00 100 1010.8
20260504151011 53 143 0.9 0.0 0.00 0.00 0.00 100 1011.2
20260504150505 53 176 0.9 0.0 0.00 0.00 0.00 100 1011.4
20260504140859 49 288 0.0 0.0 0.00 0.00 0.00 100 1012.3
20260504140353 47 260 0.0 0.0 0.00 0.00 0.00 100 1012.3
20260504130747 39 187 1.7 0.0 0.00 0.00 0.00 100 1013.0
20260504130241 40 215 0.0 0.0 0.00 0.00 0.00 100 1013.0
20260504120129 41 27 1.7 0.0 0.00 0.00 0.00 100 1012.5
20260504110523 43 107 0.0 0.0 0.00 0.00 0.00 100 1012.8
20260504100411 44 315 2.6 0.0 0.00 0.00 0.00 100 1012.2
20260504081705 54 142 6.1 12.2 0.00 0.00 0.00 100 1011.5
20260504081159 54 139 6.1 14.8 0.00 0.00 0.00 100 1011.6
20260504080653 54 150 5.2 14.8 0.00 0.00 0.00 100 1011.6
20260504080147 55 167 10.4 14.8 0.00 0.00 0.00 100 1011.6